Location: Unspecified
(0.0000°N, 0.0000°E)
Time: 05:48:15
(UTC+00:00)

Courier 1B - Visible Passes

Search period start: 19 September 2014 00:00
Search period end: 29 September 2014 00:00
Orbit: 963 x 1209 km, 28.3° (Epoch: 18 September)

Date Brightness Start Highest point End Pass type
(mag) Time Alt. Az. Time Alt. Az. Time Alt. Az.
19 Sep 10.0 05:05:48 10° NNW 05:10:38 17° NNE 05:15:31 10° ENE visible
19 Sep 8.1 18:32:35 10° SW 18:38:35 39° SSE 18:43:15 16° E visible
19 Sep 8.7 20:26:18 10° WSW 20:30:11 36° W 20:30:11 36° W visible
20 Sep 10.1 04:13:08 10° N 04:16:23 13° NNE 04:19:39 10° NE visible
20 Sep 7.4 19:32:27 10° WSW 19:38:55 79° NNW 19:40:17 57° NE visible
21 Sep 9.5 05:11:04 10° NNW 05:17:31 29° NNE 05:24:05 10° E visible
21 Sep 7.5 18:38:44 10° SW 18:45:14 74° SSE 18:50:24 17° ENE visible
21 Sep 9.2 20:33:48 10° W 20:37:20 25° WNW 20:37:20 25° WNW visible
22 Sep 9.7 04:17:54 10° NNW 04:23:25 22° NNE 04:29:04 10° ENE visible
22 Sep 8.4 19:39:31 10° W 19:45:33 41° NNW 19:47:26 34° N visible
23 Sep 9.8 03:27:10 14° N 03:29:16 16° NNE 03:33:36 10° ENE visible
23 Sep 8.8 05:16:50 10° NW 05:24:10 49° NNE 05:31:41 10° ESE visible
23 Sep 7.9 18:45:26 10° WSW 18:51:51 59° NNW 18:57:31 13° NE visible
23 Sep 9.8 20:42:20 10° WNW 20:44:26 15° NW 20:44:26 15° NW visible
24 Sep 9.1 04:24:10 13° NNW 04:30:10 36° NNE 04:37:11 10° E visible
24 Sep 9.2 19:47:25 10° WNW 19:52:19 23° NNW 19:54:29 19° N visible
25 Sep 9.3 03:34:16 24° N 03:36:10 26° NNE 03:42:22 10° E visible
25 Sep 8.1 05:23:04 10° WNW 05:30:41 84° NNE 05:38:35 10° ESE visible
25 Sep 8.9 18:52:50 10° W 18:58:31 31° NNW 19:04:08 10° NNE visible
26 Sep 9.9 02:44:23 17° NE 02:44:23 17° NE 02:47:12 10° ENE visible
26 Sep 8.2 04:31:19 20° NW 04:36:45 62° NNE 04:44:27 10° ESE visible
26 Sep 9.7 19:56:47 10° NW 19:59:19 12° NNW 20:01:21 11° N visible
27 Sep 8.5 03:41:26 41° N 03:42:49 45° NNE 03:50:05 10° E visible
27 Sep 9.6 19:01:13 10° WNW 19:05:21 17° NNW 19:09:27 10° NNE visible
28 Sep 9.5 02:51:32 26° ENE 02:51:32 26° ENE 02:55:29 10° E visible
28 Sep 7.8 04:38:28 24° WNW 04:43:16 78° SSW 04:51:04 10° SE visible
28 Sep 9.4 18:06:15 10° W 18:11:29 24° NNW 18:16:36 10° NNE visible
